User: anonymous   Login
Location: Standeford and Andreas Observatories
(44.1397°N, 93.9969°W)
Time: 16:25:16
(UTC-05:00)
Language:

Cosmos 1500 Rocket - Orbit

View from above orbital plane
View from above orbital plane
View from above satellite
View from above satellite

Ground track
Ground track

The orbit data is extracted from the following two-line orbital elements,

1 14373U 83099B   17115.90341767 +.00000147 +00000-0 +14771-4 0  9995
2 14373 082.5382 293.4075 0021238 042.6433 068.5821 14.83672523792027
Epoch (UTC): 25 April 2017 21:40:55
Eccentricity: 0.0021238
inclination: 82.5382°
perigee height: 603 km
apogee height: 632 km
right ascension of ascending node: 293.4075°
argument of perigee: 42.6433°
revolutions per day: 14.83672523
mean anomaly at epoch: 68.5821°
orbit number at epoch: 79202

The dashed part of the orbit path shows where the satellite is in the earth's shadow,  

DLR